Time,TemperatureF,DewpointF,PressureIn,WindDirection,WindDirectionDegrees,WindSpeedMPH,WindSpeedGustMPH,Humidity,HourlyPrecipIn,Conditions,Clouds,dailyrainin,SoftwareType,DateUTC
2013-07-04 00:02:00,75.0,70.0,-100.00,North,-999,0.0,-999.0,84,0.00,,,0.17,,2013-07-04 04:02:00,
2013-07-04 00:11:00,75.0,70.0,-100.00,North,-999,0.0,-999.0,84,0.00,,,0.17,,2013-07-04 04:11:00,
2013-07-04 00:22:00,75.0,70.0,-100.00,North,-999,0.0,-999.0,84,0.00,,,0.17,,2013-07-04 04:22:00,
2013-07-04 00:33:00,75.0,70.0,-100.00,North,-999,0.0,-999.0,84,0.00,,,0.17,,2013-07-04 04:33:00,
2013-07-04 00:43:00,75.0,70.0,-100.00,North,-999,0.0,-999.0,84,0.00,,,0.17,,2013-07-04 04:43:00,
2013-07-04 01:12:00,74.0,70.0,-100.00,North,-999,-999.0,-999.0,88,0.00,,,-99.99,,2013-07-04 05:12:00,
2013-07-04 01:22:00,74.0,70.0,-100.00,North,-999,-999.0,-999.0,88,0.00,,,-99.99,,2013-07-04 05:22:00,
2013-07-04 01:33:00,74.0,70.0,-100.00,North,-999,-999.0,-999.0,88,0.00,,,-99.99,,2013-07-04 05:33:00,
2013-07-04 01:43:00,74.0,70.0,-100.00,North,-999,-999.0,-999.0,88,0.00,,,-99.99,,2013-07-04 05:43:00,
2013-07-04 02:01:00,73.0,70.0,-100.00,North,-999,0.0,-999.0,90,0.00,,,0.01,,2013-07-04 06:01:00,
2013-07-04 02:11:00,73.0,70.0,-100.00,North,-999,0.0,-999.0,90,0.00,,,0.01,,2013-07-04 06:11:00,
2013-07-04 02:22:00,73.0,70.0,-100.00,North,-999,0.0,-999.0,90,0.00,,,0.01,,2013-07-04 06:22:00,
2013-07-04 02:34:00,73.0,70.0,-100.00,North,-999,0.0,-999.0,90,0.00,,,0.01,,2013-07-04 06:34:00,
2013-07-04 02:43:00,73.0,70.0,-100.00,North,-999,0.0,-999.0,90,0.00,,,0.01,,2013-07-04 06:43:00,
2013-07-04 03:02:00,72.0,69.0,-100.00,North,-999,-999.0,-999.0,90,0.00,,,0.00,,2013-07-04 07:02:00,
2013-07-04 03:12:00,72.0,69.0,-100.00,North,-999,-999.0,-999.0,90,0.00,,,0.00,,2013-07-04 07:12:00,
2013-07-04 03:22:00,72.0,69.0,-100.00,North,-999,-999.0,-999.0,90,0.00,,,0.00,,2013-07-04 07:22:00,
2013-07-04 03:34:00,72.0,69.0,-100.00,North,-999,-999.0,-999.0,90,0.00,,,0.00,,2013-07-04 07:34:00,
2013-07-04 03:43:00,72.0,69.0,-100.00,North,-999,-999.0,-999.0,90,0.00,,,0.00,,2013-07-04 07:43:00,
2013-07-04 04:02:00,71.0,69.0,-100.00,North,-999,0.0,-999.0,92,0.00,,,-99.99,,2013-07-04 08:02:00,
2013-07-04 04:12:00,71.0,69.0,-100.00,North,-999,0.0,-999.0,92,0.00,,,-99.99,,2013-07-04 08:12:00,
2013-07-04 04:22:00,71.0,69.0,-100.00,North,-999,0.0,-999.0,92,0.00,,,-99.99,,2013-07-04 08:22:00,
2013-07-04 04:30:00,71.0,69.0,-100.00,North,-999,0.0,-999.0,92,0.00,,,0.00,,2013-07-04 08:30:00,
2013-07-04 04:33:00,71.0,69.0,-100.00,North,-999,0.0,-999.0,92,0.00,,,-99.99,,2013-07-04 08:33:00,
2013-07-04 04:42:00,71.0,69.0,-100.00,North,-999,0.0,-999.0,92,0.00,,,-99.99,,2013-07-04 08:42:00,
2013-07-04 05:02:00,71.0,69.0,-100.00,North,-999,0.0,-999.0,92,0.00,,,0.00,,2013-07-04 09:02:00,
2013-07-04 05:11:00,71.0,69.0,-100.00,North,-999,0.0,-999.0,92,0.00,,,0.00,,2013-07-04 09:11:00,
2013-07-04 05:22:00,71.0,69.0,-100.00,North,-999,0.0,-999.0,92,0.00,,,0.00,,2013-07-04 09:22:00,
2013-07-04 07:02:00,73.0,69.0,-100.00,North,-999,-999.0,-999.0,86,-99.99,,,0.00,,2013-07-04 11:02:00,
2013-07-04 07:12:00,73.0,69.0,-100.00,North,-999,-999.0,-999.0,86,-99.99,,,0.00,,2013-07-04 11:12:00,
2013-07-04 07:22:00,73.0,69.0,-100.00,North,-999,-999.0,-999.0,86,-99.99,,,0.00,,2013-07-04 11:22:00,
2013-07-04 07:34:00,73.0,69.0,-100.00,North,-999,-999.0,-999.0,86,-99.99,,,0.00,,2013-07-04 11:34:00,
2013-07-04 07:43:00,73.0,69.0,-100.00,North,-999,-999.0,-999.0,86,-99.99,,,0.00,,2013-07-04 11:43:00,
2013-07-04 08:12:00,76.0,70.0,-100.00,North,-999,0.0,-999.0,81,0.00,,,0.00,,2013-07-04 12:12:00,
2013-07-04 08:22:00,76.0,70.0,-100.00,North,-999,0.0,-999.0,81,0.00,,,0.00,,2013-07-04 12:22:00,
2013-07-04 08:33:00,76.0,70.0,-100.00,North,-999,0.0,-999.0,81,0.00,,,0.00,,2013-07-04 12:33:00,
2013-07-04 08:43:00,76.0,70.0,-100.00,North,-999,0.0,-999.0,81,0.00,,,0.00,,2013-07-04 12:43:00,
2013-07-04 09:12:00,78.0,70.0,-100.00,North,-999,0.0,-999.0,76,0.00,,,-99.99,,2013-07-04 13:12:00,
2013-07-04 09:23:00,78.0,70.0,-100.00,North,-999,0.0,-999.0,76,0.00,,,-99.99,,2013-07-04 13:23:00,
2013-07-04 09:33:00,78.0,70.0,-100.00,North,-999,0.0,-999.0,76,0.00,,,-99.99,,2013-07-04 13:33:00,
2013-07-04 09:43:00,78.0,70.0,-100.00,North,-999,0.0,-999.0,76,0.00,,,-99.99,,2013-07-04 13:43:00,
2013-07-04 13:02:00,90.0,71.0,-100.00,North,-999,0.0,-999.0,53,-99.99,,,-99.99,,2013-07-04 17:02:00,
2013-07-04 13:12:00,90.0,71.0,-100.00,North,-999,0.0,-999.0,53,-99.99,,,-99.99,,2013-07-04 17:12:00,
2013-07-04 13:22:00,90.0,71.0,-100.00,North,-999,0.0,-999.0,53,-99.99,,,-99.99,,2013-07-04 17:22:00,
2013-07-04 13:34:00,90.0,71.0,-100.00,North,-999,0.0,-999.0,53,-99.99,,,-99.99,,2013-07-04 17:34:00,
2013-07-04 13:43:00,90.0,71.0,-100.00,North,-999,0.0,-999.0,53,-99.99,,,-99.99,,2013-07-04 17:43:00,
2013-07-04 14:01:00,89.0,69.0,-100.00,North,-999,-999.0,-999.0,52,0.00,,,0.00,,2013-07-04 18:01:00,
2013-07-04 14:11:00,89.0,69.0,-100.00,North,-999,-999.0,-999.0,52,0.00,,,0.00,,2013-07-04 18:11:00,
2013-07-04 14:22:00,89.0,69.0,-100.00,North,-999,-999.0,-999.0,52,0.00,,,0.00,,2013-07-04 18:22:00,
2013-07-04 14:33:00,89.0,69.0,-100.00,North,-999,-999.0,-999.0,52,0.00,,,0.00,,2013-07-04 18:33:00,
2013-07-04 14:43:00,89.0,69.0,-100.00,North,-999,-999.0,-999.0,52,0.00,,,0.00,,2013-07-04 18:43:00,
2013-07-04 15:34:00,94.0,67.0,-100.00,North,-999,-999.0,-999.0,42,0.00,,,-99.99,,2013-07-04 19:34:00,
2013-07-04 15:43:00,94.0,67.0,-100.00,North,-999,-999.0,-999.0,42,0.00,,,-99.99,,2013-07-04 19:43:00,
2013-07-04 16:02:00,94.0,68.0,-100.00,North,-999,0.0,-999.0,43,0.00,,,0.00,,2013-07-04 20:02:00,
2013-07-04 16:11:00,94.0,68.0,-100.00,North,-999,0.0,-999.0,43,0.00,,,0.00,,2013-07-04 20:11:00,
2013-07-04 16:22:00,94.0,68.0,-100.00,North,-999,0.0,-999.0,43,0.00,,,0.00,,2013-07-04 20:22:00,
2013-07-04 16:34:00,94.0,68.0,-100.00,North,-999,0.0,-999.0,43,0.00,,,0.00,,2013-07-04 20:34:00,
2013-07-04 16:42:00,94.0,68.0,-100.00,North,-999,0.0,-999.0,43,0.00,,,0.00,,2013-07-04 20:42:00,
2013-07-04 19:30:00,84.0,73.0,-100.00,North,-999,0.0,-999.0,68,-99.99,,,0.01,,2013-07-04 23:30:00,
2013-07-04 20:01:00,84.0,73.0,-100.00,North,-999,0.0,-999.0,68,-99.99,,,0.01,,2013-07-05 00:01:00,
2013-07-04 20:12:00,84.0,73.0,-100.00,North,-999,0.0,-999.0,68,-99.99,,,0.01,,2013-07-05 00:12:00,
2013-07-04 20:22:00,84.0,73.0,-100.00,North,-999,0.0,-999.0,68,-99.99,,,0.01,,2013-07-05 00:22:00,
2013-07-04 21:01:00,81.0,72.0,-100.00,North,-999,-999.0,-999.0,74,-99.99,,,0.01,,2013-07-05 01:01:00,
2013-07-04 21:11:00,81.0,72.0,-100.00,North,-999,-999.0,-999.0,74,-99.99,,,0.01,,2013-07-05 01:11:00,
2013-07-04 21:22:00,81.0,72.0,-100.00,North,-999,-999.0,-999.0,74,-99.99,,,0.01,,2013-07-05 01:22:00,
2013-07-04 21:32:00,81.0,72.0,-100.00,North,-999,-999.0,-999.0,74,-99.99,,,0.01,,2013-07-05 01:32:00,
2013-07-04 21:42:00,81.0,72.0,-100.00,North,-999,-999.0,-999.0,74,-99.99,,,0.01,,2013-07-05 01:42:00,
2013-07-04 23:02:00,79.0,70.0,-100.00,North,-999,-999.0,-999.0,73,-99.99,,,0.01,,2013-07-05 03:02:00,
2013-07-04 23:11:00,79.0,70.0,-100.00,North,-999,-999.0,-999.0,73,-99.99,,,0.01,,2013-07-05 03:11:00,
2013-07-04 23:22:00,79.0,70.0,-100.00,North,-999,-999.0,-999.0,73,-99.99,,,0.01,,2013-07-05 03:22:00,
2013-07-04 23:33:00,79.0,70.0,-100.00,North,-999,-999.0,-999.0,73,-99.99,,,0.01,,2013-07-05 03:33:00,
2013-07-04 23:42:00,79.0,70.0,-100.00,North,-999,-999.0,-999.0,73,-99.99,,,0.01,,2013-07-05 03:42:00,